Change the Weather History Date:

Thursday, April 24, 2014

  Actual Average Record
Temperature  
Mean Temperature 55 °F -  
Max Temperature 59 °F 60 °F 62 °F (2012)
Min Temperature 51 °F 43 °F 46 °F (2013)
Degree Days  
Heating Degree Days 10    
Growing Degree Days 5 (Base 50)    
Moisture  
Dew Point 53 °F    
Average Humidity 94    
Maximum Humidity 100    
Minimum Humidity 82    
Precipitation  
Precipitation 0.02 in - - ()
Sea Level Pressure  
Sea Level Pressure 30.09 in    
Wind  
Wind Speed 7 mph (WNW)    
Max Wind Speed 13 mph    
Max Gust Speed 21 mph    
Visibility 4 miles    
Events Fog , Rain    
Averages and records for this station are not official NWS values.
T = Trace of Precipitation, MM = Missing Value Source: NWS Daily Summary

Daily Weather History Graph

Daily Weather History Graph

Search for Another Location

Airport or City:

Trip Planner

Search our weather history database for the weather conditions in past years. The results will help you decide how hot, cold, wet, or windy it might be!

Date:

Astronomy

Apr. 24, 2014 Rise Set
Actual Time 6:23 AM PDT 7:53 PM PDT
Civil Twilight 5:55 AM PDT 8:21 PM PDT
Nautical Twilight 5:22 AM PDT 8:54 PM PDT
Astronomical Twilight 4:47 AM PDT 9:29 PM PDT
Moon 3:31 AM PDT (4/24) 3:20 PM PDT (4/24)
Length of Visible Light 14h 25m
Length of Day
13h 30m
Waning Crescent, 23% of the Moon is Illuminated
Apr 24
Waning Crescent
Apr 28
New
May 6
First Quarter
May 14
Full
May 21
Last Quarter

Hourly Weather History & Observations

Time (PDT) Temp. Dew Point Humidity Pressure Visibility Wind Dir Wind Speed Gust Speed Precip Events Conditions
12:15 AM 53.6 °F 50.0 °F 88% 30.11 in 6.0 mi NNW 12.7 mph 20.7 mph N/A   Mist
12:35 AM 53.6 °F 50.0 °F 88% 30.11 in 7.0 mi NNW 12.7 mph - N/A   Unknown
12:55 AM 53.6 °F 50.0 °F 88% 30.12 in 5.0 mi NNW 12.7 mph - N/A   Mist
1:15 AM 53.6 °F 50.0 °F 88% 30.11 in 5.0 mi NNW 10.4 mph - N/A   Mist
1:35 AM 53.6 °F 50.0 °F 88% 30.11 in 5.0 mi North 6.9 mph - N/A   Mist
1:55 AM 53.6 °F 50.0 °F 88% 30.10 in 5.0 mi NNW 3.5 mph - N/A   Mist
2:15 AM 53.6 °F 50.0 °F 88% 30.11 in 5.0 mi NNW 5.8 mph - N/A   Mist
2:35 AM 53.6 °F 50.0 °F 88% 30.11 in 5.0 mi NNW 6.9 mph - N/A   Mist
2:55 AM 53.6 °F 51.8 °F 94% 30.10 in 5.0 mi NNW 6.9 mph - N/A   Mist
3:15 AM 53.6 °F 50.0 °F 88% 30.11 in 5.0 mi NNW 11.5 mph - N/A   Mist
3:35 AM 53.6 °F 50.0 °F 88% 30.10 in 5.0 mi NNW 6.9 mph - N/A   Mist
3:55 AM 51.8 °F 50.0 °F 94% 30.10 in 5.0 mi NW 8.1 mph - N/A   Mist
4:15 AM 51.8 °F 50.0 °F 94% 30.11 in 1.0 mi NNW 6.9 mph - N/A   Mist
4:35 AM 51.8 °F 51.8 °F 100% 30.10 in 1.8 mi NNW 5.8 mph - N/A   Mist
4:55 AM 51.8 °F 51.8 °F 100% 30.11 in 3.0 mi North 5.8 mph - N/A   Mist
5:15 AM 53.6 °F 51.8 °F 94% 30.11 in 2.0 mi NNW 8.1 mph - N/A   Mist
5:35 AM 53.6 °F 51.8 °F 94% 30.11 in 5.0 mi NNW 5.8 mph - N/A   Overcast
5:55 AM 53.6 °F 51.8 °F 94% 30.10 in 0.5 mi WNW 4.6 mph - N/A Fog Fog
6:15 AM 53.6 °F 51.8 °F 94% 30.11 in 0.2 mi NW 3.5 mph - N/A Fog Fog
6:35 AM 53.6 °F 53.6 °F 100% 30.11 in 3.0 mi NW 5.8 mph - N/A   Overcast
6:55 AM 53.6 °F 51.8 °F 94% 30.11 in 0.5 mi NNW 5.8 mph - N/A Fog Fog
7:15 AM 53.6 °F 53.6 °F 100% 30.12 in 2.5 mi NNW 5.8 mph - N/A   Overcast
7:35 AM 53.6 °F 53.6 °F 100% 30.12 in 2.0 mi Calm Calm - N/A   Overcast
7:55 AM 53.6 °F 53.6 °F 100% 30.12 in 5.0 mi NNW 3.5 mph - N/A   Overcast
8:15 AM 53.6 °F 53.6 °F 100% 30.13 in 4.0 mi NW 4.6 mph - N/A   Overcast
8:35 AM 53.6 °F 53.6 °F 100% 30.14 in 5.0 mi NNW 3.5 mph - N/A   Overcast
8:55 AM 53.6 °F 53.6 °F 100% 30.14 in 5.0 mi Calm Calm - N/A   Overcast
9:15 AM 53.6 °F 53.6 °F 100% 30.14 in 4.0 mi WSW 3.5 mph - N/A   Overcast
9:35 AM 53.6 °F 53.6 °F 100% 30.14 in 2.0 mi WSW 3.5 mph - N/A   Overcast
9:55 AM 53.6 °F 53.6 °F 100% 30.14 in 2.0 mi West 3.5 mph - N/A   Overcast
10:15 AM 53.6 °F 53.6 °F 100% 30.14 in 1.0 mi SW 3.5 mph - N/A   Overcast
10:35 AM 53.6 °F 53.6 °F 100% 30.14 in 3.0 mi SSW 3.5 mph - N/A   Overcast
10:55 AM 55.4 °F 53.6 °F 94% 30.14 in 2.5 mi South 4.6 mph - N/A   Overcast
11:15 AM 55.4 °F 53.6 °F 94% - 4.0 mi North - - N/A   Overcast
11:35 AM 57.2 °F 55.4 °F 94% 30.14 in 7.0 mi West 4.6 mph - N/A   Unknown
11:55 AM 57.2 °F 53.6 °F 88% 30.13 in 7.0 mi SW 6.9 mph - N/A   Scattered Clouds
12:15 PM 57.2 °F 53.6 °F 88% 30.13 in 8.0 mi West 8.1 mph - N/A   Clear
12:35 PM 57.2 °F 53.6 °F 88% 30.12 in 6.0 mi West 4.6 mph - N/A   Clear
12:55 PM 57.2 °F 53.6 °F 88% 30.11 in 5.0 mi West 5.8 mph - N/A   Clear
1:15 PM 57.2 °F 53.6 °F 88% 30.11 in 5.0 mi West 5.8 mph - N/A   Clear
1:35 PM 59.0 °F 53.6 °F 82% 30.11 in 7.0 mi West 9.2 mph - N/A   Clear
1:55 PM 59.0 °F 53.6 °F 82% 30.11 in 7.0 mi WNW 10.4 mph - N/A   Clear
2:15 PM 57.2 °F 53.6 °F 88% 30.11 in 5.0 mi WNW 8.1 mph - N/A   Clear
2:35 PM 59.0 °F 53.6 °F 82% 30.10 in 5.0 mi WNW 8.1 mph - N/A   Haze
2:55 PM 57.2 °F 53.6 °F 88% 30.10 in 5.0 mi NW 10.4 mph - N/A   Haze
3:15 PM 57.2 °F 53.6 °F 88% 30.09 in 5.0 mi West 8.1 mph - N/A   Partly Cloudy
3:35 PM 57.2 °F 53.6 °F 88% 30.09 in 4.0 mi West 5.8 mph - N/A   Clear
3:55 PM 57.2 °F 53.6 °F 88% 30.09 in 4.0 mi West 6.9 mph - N/A   Partly Cloudy
4:15 PM 57.2 °F 53.6 °F 88% 30.08 in 4.0 mi West 6.9 mph - N/A   Mostly Cloudy
4:35 PM 57.2 °F 53.6 °F 88% 30.08 in 4.0 mi West 4.6 mph - N/A   Mostly Cloudy
4:55 PM 57.2 °F 53.6 °F 88% 30.07 in 3.0 mi West 3.5 mph - N/A   Overcast
5:15 PM 57.2 °F 55.4 °F 94% 30.07 in 3.0 mi WNW 6.9 mph - N/A   Overcast
5:35 PM 55.4 °F 55.4 °F 100% 30.07 in 3.0 mi NW 5.8 mph - N/A   Overcast
5:55 PM 55.4 °F 55.4 °F 100% 30.06 in 4.0 mi NW 4.6 mph - N/A   Mostly Cloudy
6:15 PM 57.2 °F 55.4 °F 94% 30.05 in 4.0 mi WNW 6.9 mph - N/A   Scattered Clouds
6:35 PM 55.4 °F 53.6 °F 94% 30.04 in 3.0 mi WNW 4.6 mph - N/A   Mostly Cloudy
6:55 PM 55.4 °F 53.6 °F 94% 30.04 in 2.5 mi West 3.5 mph - N/A   Overcast
7:15 PM 55.4 °F 53.6 °F 94% 30.04 in 2.5 mi West 3.5 mph - N/A   Overcast
7:35 PM - - N/A% 30.03 in - Calm Calm - N/A   Unknown
7:55 PM 55.4 °F 53.6 °F 94% 30.03 in 2.0 mi Calm Calm - N/A   Overcast
8:15 PM 55.4 °F 55.4 °F 100% 30.03 in 4.0 mi South 3.5 mph - N/A   Overcast
8:35 PM 55.4 °F 53.6 °F 94% 30.03 in 3.0 mi Calm Calm - N/A   Overcast
8:55 PM 55.4 °F 53.6 °F 94% 30.03 in 2.5 mi SW 3.5 mph - N/A   Overcast
9:15 PM 55.4 °F 53.6 °F 94% 30.03 in 3.0 mi West 3.5 mph - N/A   Overcast
9:35 PM 55.4 °F 55.4 °F 100% 30.03 in 3.0 mi Calm Calm - N/A   Overcast
9:55 PM 55.4 °F 55.4 °F 100% 30.03 in 4.0 mi Calm Calm - N/A   Overcast
10:15 PM 55.4 °F 55.4 °F 100% 30.02 in 4.0 mi Calm Calm - N/A   Overcast
10:35 PM 55.4 °F 55.4 °F 100% 30.01 in 3.0 mi SSE 4.6 mph - N/A Rain Light Rain
10:55 PM 55.4 °F 55.4 °F 100% 30.02 in 3.0 mi South 5.8 mph - N/A Rain Light Rain
11:15 PM 55.4 °F 55.4 °F 100% 30.02 in 3.0 mi SSW 5.8 mph - 0.01 in Rain Light Rain
11:35 PM 55.4 °F 55.4 °F 100% 30.02 in 2.5 mi SSW 5.8 mph - 0.01 in Rain Light Rain
11:55 PM 55.4 °F 55.4 °F 100% 30.01 in 2.0 mi SW 6.9 mph - 0.02 in Rain Light Rain